Change the Weather History Date:

Thursday, October 11, 2012

  Actual Average Record
Temperature  
Mean Temperature 34 °F -  
Max Temperature 44 °F 44 °F 57 °F (1969)
Min Temperature 23 °F 31 °F 12 °F (1961)
Degree Days  
Heating Degree Days 32    
Moisture  
Dew Point 26 °F    
Average Humidity 78    
Maximum Humidity 100    
Minimum Humidity 49    
Precipitation  
Precipitation 0.00 in - - ()
Sea Level Pressure  
Sea Level Pressure 29.75 in    
Wind  
Wind Speed 2 mph (ENE)    
Max Wind Speed 12 mph    
Max Gust Speed -    
Visibility 10 miles    
Events      
Averages and records for this station are not official NWS values.
T = Trace of Precipitation, MM = Missing Value Source: NWS Daily Summary

Daily Weather History Graph

Daily Weather History Graph

Search for Another Location

Airport or City:

Trip Planner

Search our weather history database for the weather conditions in past years. The results will help you decide how hot, cold, wet, or windy it might be!

Date:

Astronomy

Oct. 11, 2012 Rise Set
Actual Time 8:36 AM AKDT 7:03 PM AKDT
Civil Twilight 7:53 AM AKDT 7:46 PM AKDT
Nautical Twilight 7:04 AM AKDT 8:34 PM AKDT
Astronomical Twilight 6:15 AM AKDT 9:24 PM AKDT
Moon 3:28 AM AKDT (10/11) 5:32 PM AKDT (10/11)
Length of Visible Light 11h 52m
Length of Day
10h 27m
Waning Crescent, 17% of the Moon is Illuminated
Oct 11
Waning Crescent
Oct 15
New
Oct 21
First Quarter
Oct 29
Full
Nov 6
Last Quarter

Hourly Weather History & Observations

Time (AKDT) Temp. Windchill Dew Point Humidity Pressure Visibility Wind Dir Wind Speed Gust Speed Precip Events Conditions
12:16 AM 28.4 °F - 24.8 °F 86% 29.92 in - Calm Calm - N/A   Unknown
12:36 AM 30.2 °F - 26.6 °F 86% 29.92 in - Calm Calm - N/A   Unknown
12:56 AM 28.4 °F - 24.8 °F 86% 29.92 in 10.0 mi Calm Calm - N/A   Clear
1:16 AM 28.4 °F - 26.6 °F 93% 29.91 in - Calm Calm - N/A   Unknown
1:36 AM 28.4 °F - 24.8 °F 86% 29.91 in 10.0 mi Calm Calm - N/A   Clear
1:56 AM 28.4 °F - 26.6 °F 93% 29.91 in 10.0 mi Calm Calm - N/A   Clear
2:16 AM 28.4 °F - 24.8 °F 86% 29.91 in 10.0 mi Calm Calm - N/A   Clear
2:36 AM 26.6 °F - 24.8 °F 93% 29.91 in - Calm Calm - N/A   Unknown
2:56 AM 26.6 °F - 26.6 °F 100% 29.90 in - Calm Calm - N/A   Unknown
3:16 AM 26.6 °F - 24.8 °F 93% 29.90 in - Calm Calm - N/A   Unknown
3:36 AM 26.6 °F - 24.8 °F 93% 29.89 in - Calm Calm - N/A   Unknown
3:56 AM 26.6 °F - 24.8 °F 93% 29.89 in 10.0 mi Calm Calm - N/A   Clear
4:16 AM 26.6 °F - 21.2 °F 80% 29.89 in 10.0 mi Calm Calm - N/A   Clear
4:36 AM 26.6 °F - 24.8 °F 93% 29.88 in 10.0 mi Calm Calm - N/A   Clear
4:56 AM 26.6 °F 22.6 °F 24.8 °F 93% 29.88 in 10.0 mi ENE 3.5 mph - N/A   Clear
5:16 AM 26.6 °F - 24.8 °F 93% 29.87 in - Calm Calm - N/A   Unknown
5:36 AM 24.8 °F - 21.2 °F 86% 29.87 in - Calm Calm - N/A   Unknown
5:56 AM 26.6 °F - 23.0 °F 86% 29.86 in - Calm Calm - N/A   Unknown
6:16 AM 26.6 °F - 24.8 °F 93% 29.85 in - Calm Calm - N/A   Mostly Cloudy
6:36 AM 26.6 °F 21.2 °F 24.8 °F 93% 29.85 in 10.0 mi East 4.6 mph - N/A   Partly Cloudy
6:56 AM 24.8 °F - 21.2 °F 86% 29.84 in 10.0 mi Calm Calm - N/A   Clear
7:16 AM 24.8 °F - 24.8 °F 100% 29.84 in 10.0 mi Calm Calm - N/A   Clear
7:36 AM 24.8 °F - 21.2 °F 86% 29.83 in - Calm Calm - N/A   Unknown
7:56 AM 26.6 °F 21.2 °F 26.6 °F 100% 29.83 in 10.0 mi East 4.6 mph - N/A   Clear
8:16 AM 26.6 °F 22.6 °F 24.8 °F 93% 29.82 in 10.0 mi East 3.5 mph - N/A   Clear
8:36 AM 24.8 °F - 21.2 °F 86% 29.82 in 10.0 mi Calm Calm - N/A   Clear
8:56 AM 23.0 °F - 19.4 °F 86% 29.81 in - Calm Calm - N/A   Unknown
9:16 AM 23.0 °F 18.4 °F 19.4 °F 86% 29.81 in - East 3.5 mph - N/A   Unknown
9:36 AM 24.8 °F - 21.2 °F 86% 29.80 in - Calm Calm - N/A   Unknown
9:56 AM 24.8 °F - 23.0 °F 93% 29.80 in - Calm Calm - N/A   Unknown
10:16 AM 28.4 °F - 26.6 °F 93% 29.80 in - Calm Calm - N/A   Unknown
10:36 AM 30.2 °F - 28.4 °F 93% 29.80 in - Calm Calm - N/A   Unknown
10:56 AM 30.2 °F - 28.4 °F 93% 29.79 in - Calm Calm - N/A   Unknown
11:16 AM 33.8 °F - 30.2 °F 87% 29.79 in - Calm Calm - N/A   Unknown
11:36 AM 35.6 °F - 30.2 °F 81% 29.78 in 10.0 mi Calm Calm - N/A   Clear
11:56 AM 39.2 °F 35.0 °F 28.4 °F 65% 29.77 in 10.0 mi NE 5.8 mph - N/A   Clear
12:16 PM 39.2 °F 32.0 °F 30.2 °F 70% 29.77 in 10.0 mi NE 11.5 mph - N/A   Clear
12:36 PM 41.0 °F 35.2 °F 28.4 °F 61% 29.77 in 10.0 mi ENE 9.2 mph - N/A   Clear
12:56 PM 41.0 °F 35.2 °F 28.4 °F 61% 29.76 in 10.0 mi NE 9.2 mph - N/A   Clear
1:16 PM 42.8 °F 38.6 °F 26.6 °F 53% 29.75 in 10.0 mi ENE 6.9 mph - N/A   Clear
1:36 PM 42.8 °F 38.0 °F 26.6 °F 53% 29.74 in 10.0 mi ENE 8.1 mph - N/A   Clear
1:56 PM 42.8 °F 39.3 °F 26.6 °F 53% 29.74 in 10.0 mi ENE 5.8 mph - N/A   Clear
2:16 PM 42.8 °F 38.0 °F 26.6 °F 53% 29.73 in 10.0 mi ENE 8.1 mph - N/A   Clear
2:36 PM 44.6 °F 40.7 °F 26.6 °F 49% 29.72 in 10.0 mi ENE 6.9 mph - N/A   Clear
2:56 PM 44.6 °F 41.4 °F 26.6 °F 49% 29.71 in 10.0 mi NE 5.8 mph - N/A   Clear
3:16 PM 44.6 °F 41.4 °F 28.4 °F 53% 29.70 in 10.0 mi NE 5.8 mph - N/A   Clear
3:36 PM 44.6 °F 42.2 °F 28.4 °F 53% 29.69 in 10.0 mi NE 4.6 mph - N/A   Clear
3:56 PM 44.6 °F 40.7 °F 28.4 °F 53% 29.68 in 10.0 mi NE 6.9 mph - N/A   Clear
4:16 PM 44.6 °F 40.2 °F 28.4 °F 53% 29.68 in 10.0 mi NNE 8.1 mph - N/A   Clear
4:36 PM 44.6 °F 41.4 °F 28.4 °F 53% 29.67 in 10.0 mi NE 5.8 mph - N/A   Clear
4:56 PM 44.6 °F 40.2 °F 26.6 °F 49% 29.66 in 10.0 mi ENE 8.1 mph - N/A   Clear
5:16 PM 44.6 °F 41.4 °F 28.4 °F 53% 29.65 in 10.0 mi NE 5.8 mph - N/A   Clear
5:56 PM 44.6 °F 40.2 °F 26.6 °F 49% 29.64 in 10.0 mi NE 8.1 mph - N/A   Clear
6:16 PM 44.6 °F 40.7 °F 28.4 °F 53% 29.63 in 10.0 mi NE 6.9 mph - N/A   Clear
6:36 PM 44.6 °F 41.4 °F 30.2 °F 57% 29.63 in 10.0 mi ENE 5.8 mph - N/A   Clear
6:56 PM 42.8 °F 40.1 °F 26.6 °F 53% 29.62 in 10.0 mi East 4.6 mph - N/A   Clear
7:16 PM 37.4 °F - 26.6 °F 65% 29.62 in 10.0 mi Calm Calm - N/A   Clear
7:36 PM 35.6 °F - 26.6 °F 70% 29.61 in 10.0 mi Calm Calm - N/A   Clear
7:56 PM 33.8 °F - 26.6 °F 75% 29.62 in - Calm Calm - N/A   Clear
8:16 PM 32.0 °F - 24.8 °F 75% 29.61 in - Calm Calm - N/A   Clear
8:36 PM 30.2 °F - 26.6 °F 86% 29.60 in - Calm Calm - N/A   Unknown
8:56 PM 30.2 °F - 24.8 °F 80% 29.60 in - Calm Calm - N/A   Clear
9:16 PM 28.4 °F - 24.8 °F 86% 29.59 in - Calm Calm - N/A   Unknown
9:36 PM 28.4 °F - 24.8 °F 86% 29.59 in - Calm Calm - N/A   Unknown
9:56 PM 28.4 °F - 24.8 °F 86% 29.58 in - Calm Calm - N/A   Unknown
10:16 PM 28.4 °F - 24.8 °F 86% 29.58 in 10.0 mi Calm Calm - N/A   Clear
10:36 PM 28.4 °F - 24.8 °F 86% 29.57 in 10.0 mi Calm Calm - N/A   Clear
10:56 PM 28.4 °F - 24.8 °F 86% 29.57 in - Calm Calm - N/A   Unknown
11:16 PM 26.6 °F - 24.8 °F 93% 29.56 in - Calm Calm - N/A   Unknown
11:36 PM 26.6 °F - 23.0 °F 86% 29.55 in - Calm Calm - N/A   Unknown
11:56 PM 26.6 °F - 24.8 °F 93% 29.54 in - Calm Calm - N/A   Unknown